ECMWFNIL_sfc_thetae_000.txt.gz
Theta_e
288 287 287 286 286 286 285 285 285 285 285 284 284 284 283 284 283 282 282 281 281 280 280 280 280 279 280 279 279 279 279 278 278 278 278 278 277 277 277 276 276 276
288 287 287 287 286 286 286 285 285 285 284 284 284 284 284 283 283 282 282 281 281 280 280 280 279 279 279 279 279 278 278 278 278 279 278 277 277 277 277 277 276 276
287 287 286 286 286 285 285 285 285 285 284 284 284 284 283 283 282 282 282 281 280 280 279 279 279 279 279 279 278 279 278 278 278 278 278 277 277 277 277 276 276 276
287 287 286 286 286 285 285 284 284 284 284 283 283 283 283 283 282 281 281 281 280 279 279 279 279 279 279 278 278 278 278 278 278 278 277 277 277 277 276 276 277 276
286 286 286 285 285 285 284 284 283 283 283 283 282 282 282 281 281 281 280 280 280 279 279 279 279 278 278 278 278 278 277 277 277 277 277 276 277 277 276 276 276 275
286 286 286 285 285 284 283 283 283 283 283 282 282 282 281 281 281 281 280 280 279 279 279 279 278 278 278 278 278 278 277 277 277 277 277 276 276 276 277 276 276 275
285 285 285 285 284 283 283 283 283 283 282 282 281 281 281 281 281 280 280 280 279 279 278 278 278 278 278 278 277 277 277 277 276 276 276 275 275 275 276 275 275 274
285 285 284 284 283 283 283 283 282 282 282 281 281 281 281 281 280 280 280 279 279 278 278 278 278 278 278 278 277 277 276 276 276 275 275 274 274 273 274 274 274 273
285 284 283 283 283 283 282 282 282 282 281 281 281 280 281 281 280 280 280 279 279 278 278 278 278 278 278 277 277 276 276 275 275 275 274 273 273 273 272 273 272 272
284 284 283 282 282 283 282 282 282 281 281 281 281 280 280 280 280 280 279 279 278 278 278 277 277 277 277 277 277 276 275 275 274 274 274 273 273 272 272 272 272 271
284 283 282 282 282 283 282 282 281 281 281 281 280 280 280 279 279 279 279 278 278 278 277 277 277 276 276 276 276 275 275 275 274 274 273 273 273 273 274 272 272 271
283 283 283 282 282 282 282 282 281 281 280 280 280 280 279 279 279 278 278 278 278 277 277 277 276 276 276 275 275 275 274 274 274 273 273 272 272 273 273 273 272 272
283 283 283 283 283 283 282 282 281 280 280 280 280 280 279 278 278 278 278 278 277 277 277 276 276 275 275 275 274 274 274 274 273 273 273 273 273 272 273 272 272 271
284 284 283 283 283 282 281 281 280 280 280 280 279 279 279 278 278 278 277 277 277 276 276 276 275 275 274 274 274 274 274 274 273 273 272 272 271 271 271 271 271 271
284 284 283 282 282 281 280 280 280 279 279 279 279 279 279 278 278 277 276 276 275 275 275 275 275 275 275 274 274 274 273 272 272 272 271 271 271 271 271 271 271 272
284 282 282 281 280 280 280 280 279 279 279 278 278 278 277 277 277 276 276 275 275 274 274 274 275 275 276 278 277 273 272 272 271 271 271 271 270 270 271 271 271 272
282 281 281 280 280 280 280 279 279 278 278 277 277 277 276 276 276 275 275 275 274 274 274 274 274 274 279 281 280 279 273 272 271 270 271 271 270 270 270 271 271 272
282 281 279 279 279 279 278 278 278 277 277 277 276 275 275 275 274 274 274 274 274 273 273 273 273 277 281 281 281 280 276 272 271 271 271 270 271 271 271 272 272 272
280 280 279 278 278 278 277 277 276 276 276 275 275 275 274 273 274 274 273 274 273 273 273 273 272 279 282 282 281 280 278 274 271 271 271 271 271 271 272 272 273 273
280 279 279 278 277 277 276 276 275 276 276 275 275 274 274 274 274 273 274 273 273 273 273 272 271 278 282 282 282 281 279 275 271 271 271 272 272 272 273 273 273 273
280 279 278 277 277 276 276 275 275 275 275 275 275 274 274 274 273 273 273 273 272 272 272 271 271 278 281 282 282 282 280 275 271 272 272 273 273 274 274 274 274 273
279 278 278 277 276 276 275 275 275 275 275 274 274 274 274 274 273 273 272 272 272 271 271 270 271 279 282 282 282 282 282 275 273 273 273 273 274 274 274 274 273 272
279 278 277 276 276 275 275 275 275 275 274 274 273 273 273 273 272 272 272 271 271 270 270 269 270 278 282 282 282 282 281 275 274 274 274 273 273 273 273 273 273 272
278 278 277 276 275 274 274 275 275 275 274 273 273 272 272 272 271 270 270 270 270 269 270 269 269 277 282 281 281 282 279 274 274 273 272 272 272 273 273 273 273 275
277 276 276 275 274 274 274 274 274 273 273 273 273 272 272 271 270 269 268 269 269 269 272 270 269 276 281 281 281 282 278 274 273 272 272 272 272 272 272 272 272 274
276 276 275 274 273 273 273 273 272 271 270 271 271 271 270 269 268 269 268 267 268 268 270 269 269 272 277 281 280 281 279 274 273 272 271 271 272 271 271 272 272 273

ECMWFNIL_sfc_thetae_003.txt.gz
Theta_e
289 288 288 287 287 287 286 286 286 286 285 285 285 285 285 284 284 283 283 282 282 281 280 280 280 280 280 280 280 280 279 279 279 278 278 278 278 278 278 277 277 277
288 288 288 287 287 287 286 286 286 286 286 285 285 285 285 284 284 283 282 282 281 281 280 280 280 280 280 279 279 279 279 278 278 279 278 278 277 277 277 277 277 277
288 287 287 287 287 286 286 286 285 285 286 285 285 284 284 284 283 283 282 282 281 280 280 280 280 280 279 279 279 279 279 278 278 278 278 278 277 277 277 277 277 277
288 288 287 287 287 286 286 285 285 285 284 283 284 284 284 283 283 282 282 282 281 280 280 279 279 279 279 279 279 279 279 278 278 278 278 277 277 277 277 277 277 277
287 287 287 287 287 286 285 284 284 284 284 284 283 283 283 282 282 282 281 281 281 280 279 279 279 279 279 279 279 278 278 278 278 278 277 277 277 277 277 277 276 276
286 287 287 286 286 285 284 284 284 284 283 283 283 283 282 282 282 281 281 281 280 280 279 279 279 279 279 278 278 278 278 277 277 277 277 277 276 277 277 277 276 276
286 286 286 286 285 284 284 284 284 283 283 283 282 282 282 282 281 281 281 281 280 280 279 279 279 278 278 278 278 278 277 277 277 277 277 276 276 276 277 276 276 275
286 286 286 285 284 284 284 283 283 283 283 282 282 282 282 282 281 281 281 281 280 279 279 279 279 278 278 278 278 277 277 277 277 276 276 275 275 275 275 276 276 275
286 285 285 285 284 284 284 284 283 283 282 282 282 281 281 282 281 281 281 280 280 280 279 279 279 278 278 278 278 277 277 277 277 276 276 275 275 275 275 275 274 274
285 285 284 284 284 284 284 284 284 283 282 282 282 281 281 281 281 281 280 280 280 279 279 279 278 278 278 278 278 277 277 277 276 276 276 276 275 275 274 274 274 273
284 284 284 283 284 284 284 284 283 282 282 282 281 281 281 281 281 281 280 280 280 279 279 278 278 278 277 277 277 277 277 277 276 276 276 275 275 274 275 274 273 273
284 284 284 284 284 284 284 284 284 283 281 282 282 281 280 281 280 280 280 280 280 279 279 279 278 278 277 277 277 277 277 276 276 276 275 275 274 274 274 273 273 273
284 284 285 285 285 285 285 284 284 283 282 282 282 281 280 280 280 280 280 280 280 279 279 279 278 278 277 277 277 276 276 276 275 275 275 274 274 273 273 273 273 272
285 285 285 285 285 284 284 284 284 283 282 282 281 281 280 280 280 280 280 280 280 279 279 278 278 277 277 277 276 276 276 275 275 274 274 273 273 273 273 272 272 272
285 285 285 285 284 283 283 283 283 282 282 281 281 281 281 280 280 280 279 279 279 279 278 278 278 277 277 277 276 276 275 275 274 274 273 273 272 272 272 272 272 272
285 285 284 284 283 283 283 283 282 281 281 280 280 280 280 280 279 279 279 279 278 278 278 278 278 278 279 281 280 276 276 275 274 274 273 273 272 271 271 272 272 272
284 284 284 283 283 283 282 282 281 280 280 280 279 279 280 280 280 279 279 279 278 278 277 277 277 278 281 282 282 281 277 275 274 273 273 272 272 271 271 271 271 271
284 283 283 283 282 282 282 281 281 280 279 279 279 279 279 279 279 279 279 279 279 278 277 277 277 280 282 283 283 282 279 275 274 273 272 272 272 271 271 271 271 271
283 283 283 282 281 281 281 280 280 279 279 279 279 279 279 278 279 279 278 279 278 277 277 277 277 281 283 284 284 283 281 277 273 273 272 272 272 271 271 271 271 271
282 282 282 282 280 280 280 280 279 279 279 279 279 278 278 278 278 278 278 278 277 277 277 277 276 281 283 284 284 284 282 278 273 273 272 272 272 271 272 271 271 271
281 281 281 280 279 279 279 279 279 279 278 278 278 278 278 277 277 277 277 277 277 277 277 276 276 281 284 284 284 284 283 278 272 272 272 271 272 272 272 272 272 272
278 278 278 277 278 277 278 279 278 278 278 278 278 277 278 278 277 277 277 276 276 276 276 275 275 282 284 285 285 284 283 274 272 271 271 271 271 272 272 272 273 273
277 277 277 277 277 277 277 278 278 278 278 278 277 277 277 277 276 276 276 276 276 275 275 275 274 281 284 285 285 285 281 272 271 271 271 271 271 272 272 273 273 273
279 278 279 278 278 277 278 278 278 278 278 277 277 276 276 276 276 276 276 276 275 275 275 274 273 279 284 285 285 285 278 272 271 271 271 271 272 272 273 273 273 276
278 279 280 278 278 278 277 277 277 277 277 276 277 277 276 276 275 275 274 274 274 274 276 274 273 278 284 284 285 285 277 272 272 272 271 272 272 272 272 272 273 275
277 278 279 278 278 277 277 277 276 275 275 275 275 275 275 274 274 274 273 273 273 273 274 274 273 275 281 284 285 284 280 274 273 272 271 272 272 272 271 272 273 274

ECMWFNIL_sfc_thetae_006.txt.gz
Theta_e
290 289 289 289 288 288 287 287 287 286 286 286 286 286 285 285 285 284 284 283 283 282 282 281 282 281 281 280 280 280 280 280 279 279 279 279 278 278 278 278 278 278
289 289 289 288 288 287 287 287 287 287 286 286 286 286 286 285 284 284 283 283 283 282 282 281 281 281 281 280 280 279 279 279 279 279 279 278 278 278 278 278 278 277
289 288 288 287 287 287 286 286 287 287 286 286 286 285 285 285 284 283 283 283 282 282 281 281 281 281 280 280 280 280 279 279 278 278 278 278 278 278 278 277 277 277
288 288 287 287 287 287 286 285 285 286 285 284 285 284 284 284 284 283 283 283 282 281 281 280 280 280 280 280 279 279 279 279 279 278 278 278 278 278 277 277 277 277
287 287 287 287 286 286 285 285 285 285 285 285 284 284 284 283 283 283 283 282 282 281 280 280 280 280 280 279 279 279 279 278 278 278 278 277 277 277 277 277 277 277
286 287 287 286 286 285 285 285 285 284 284 284 284 284 284 283 283 283 283 282 282 281 280 280 279 279 279 279 279 279 278 278 278 278 277 277 277 277 277 277 277 277
286 286 286 286 285 285 285 285 284 284 284 284 283 283 283 283 283 283 282 282 282 281 280 280 279 279 279 279 279 278 278 278 277 277 277 277 277 276 277 277 277 276
286 285 285 285 285 285 285 285 284 284 284 283 283 283 283 283 283 282 282 282 281 281 280 280 280 279 279 279 279 278 278 278 277 277 277 276 276 276 276 277 276 276
285 285 285 285 285 285 285 285 285 284 284 283 283 283 283 283 283 282 282 282 281 281 280 280 280 279 279 279 279 278 278 277 277 277 277 276 276 276 276 276 276 276
284 284 283 284 284 285 285 285 285 285 284 284 283 283 282 283 283 282 282 282 281 281 281 280 280 279 279 279 279 278 278 278 277 277 277 277 277 277 276 276 276 275
284 284 284 284 284 285 285 285 285 285 284 283 283 282 282 282 282 282 282 281 281 281 281 281 280 280 279 278 279 279 278 278 277 277 277 277 277 277 278 276 276 276
284 284 284 284 285 285 285 285 285 284 284 283 283 283 282 283 282 282 282 281 281 281 281 281 281 280 279 279 278 278 278 278 277 277 277 277 277 277 277 276 276 276
284 284 284 285 285 285 285 285 284 284 283 283 283 283 282 282 282 282 282 282 282 282 281 281 281 280 280 279 279 278 278 277 277 277 277 277 277 276 276 276 276 276
284 284 285 285 285 285 285 285 284 284 284 284 283 283 283 282 282 282 282 282 282 282 282 281 281 280 280 279 279 278 278 278 277 277 277 277 276 276 276 276 275 275
285 285 285 285 285 285 284 284 284 284 284 283 283 283 283 282 282 282 282 282 282 282 282 281 280 280 280 279 278 278 278 277 277 277 277 276 276 275 275 275 275 274
285 285 285 285 284 284 284 284 284 284 283 283 283 282 282 282 281 282 282 282 282 281 281 281 280 280 281 283 282 279 278 278 277 277 277 276 275 274 274 274 274 274
285 285 285 284 284 284 284 284 283 283 283 282 282 282 281 281 281 281 282 282 281 281 280 280 280 280 283 284 284 284 279 278 277 276 276 276 275 274 274 273 273 273
285 285 284 284 284 283 283 283 283 282 282 281 281 280 281 281 281 281 281 281 281 281 280 280 280 282 284 285 285 285 282 279 278 277 276 276 275 275 274 274 273 272
283 283 283 283 283 283 283 282 281 281 281 280 280 280 280 280 280 280 280 281 281 280 280 280 280 283 285 285 286 286 285 281 278 277 276 276 275 275 274 273 272 272
282 282 282 283 283 282 281 281 281 281 281 281 281 280 280 280 280 280 280 280 280 280 280 280 280 283 285 286 286 286 285 282 277 277 276 276 275 274 273 273 273 272
281 281 281 281 281 281 280 280 280 280 281 280 280 280 280 280 280 280 280 280 280 280 280 280 279 283 285 286 286 286 286 283 277 277 276 275 274 274 274 273 273 273
280 280 280 279 279 278 278 280 280 280 280 280 280 280 280 280 280 280 280 280 280 280 280 279 279 283 285 286 286 287 286 280 276 276 275 275 274 273 273 273 273 273
280 279 279 279 278 277 278 278 279 279 279 279 279 279 279 279 279 280 280 280 280 279 279 279 278 282 285 286 286 286 285 278 276 275 274 274 273 274 273 273 273 273
279 278 278 278 278 277 277 278 277 278 278 278 278 278 278 278 279 279 279 279 279 279 279 278 277 280 284 285 286 286 284 276 275 274 274 273 272 273 273 273 273 275
278 277 277 277 277 277 276 276 276 277 276 275 277 277 278 278 278 278 277 278 278 278 280 279 277 279 284 285 286 287 283 275 275 274 273 272 272 272 273 273 274 275
279 277 277 276 276 276 275 275 274 273 273 274 275 276 276 276 276 277 276 276 277 277 277 278 277 278 282 285 286 287 284 276 275 274 272 272 272 271 271 272 273 274

ECMWFNIL_sfc_thetae_009.txt.gz
Theta_e
293 293 293 292 292 292 291 290 291 291 290 290 289 289 289 289 289 288 288 288 288 287 287 287 287 286 286 285 285 285 285 285 284 285 284 283 283 282 282 282 283 284
291 292 292 292 291 291 291 291 291 291 290 290 290 290 290 289 289 288 287 287 287 287 287 287 286 286 285 284 284 284 284 284 283 284 283 283 283 282 282 283 283 283
290 291 290 290 290 290 290 290 290 290 290 290 290 290 289 289 288 288 287 287 287 286 286 286 286 285 285 284 284 283 283 283 283 283 283 283 283 282 283 283 283 282
289 290 289 289 290 289 289 289 289 289 289 289 289 289 289 288 288 287 287 286 286 286 285 285 285 285 284 284 283 283 283 283 284 283 283 283 283 283 282 282 282 282
287 288 288 288 288 289 288 287 287 288 288 288 288 288 288 287 287 286 286 286 286 285 285 284 284 284 284 283 283 283 283 283 283 283 283 282 282 282 282 282 281 281
287 287 287 287 287 287 287 287 287 287 287 287 287 287 287 287 287 286 286 285 285 285 284 284 284 284 283 283 283 283 283 282 282 282 282 282 281 282 281 281 281 281
286 286 287 287 287 286 287 287 287 287 287 287 287 286 286 286 286 286 286 285 285 285 284 283 283 283 283 283 282 282 282 282 282 281 281 282 281 281 281 281 281 281
285 286 286 286 286 286 286 287 287 287 287 286 286 287 286 286 286 286 286 285 285 284 284 284 283 283 283 283 282 282 281 282 281 281 281 281 281 280 280 280 281 280
284 285 285 285 285 286 286 287 287 287 286 286 286 286 286 286 286 286 285 285 285 285 284 283 283 283 283 282 282 282 281 281 281 281 281 281 280 280 280 280 280 280
285 285 284 285 285 286 286 287 287 287 286 286 286 286 285 286 286 286 285 285 285 285 284 284 283 283 282 282 282 282 281 281 281 281 281 281 280 280 280 279 279 279
286 286 285 284 284 285 285 286 286 287 286 286 286 285 285 285 285 285 285 285 284 284 284 283 283 283 282 282 282 282 282 281 281 280 281 281 281 280 280 279 279 279
287 287 286 286 285 285 285 285 286 286 286 286 286 285 285 285 285 285 284 284 284 285 284 284 284 283 283 282 282 282 282 282 281 281 281 281 281 281 280 280 280 280
286 286 286 286 286 286 286 286 285 286 286 286 285 285 285 284 284 284 285 285 284 284 284 284 284 283 283 283 282 282 282 281 281 281 281 281 281 281 280 280 280 280
286 286 286 286 286 286 286 285 285 285 286 286 286 285 285 285 284 284 284 284 284 284 285 285 284 284 283 283 282 282 282 281 281 281 280 280 281 281 280 280 280 280
285 285 285 285 285 286 286 286 286 285 285 286 286 285 285 285 285 285 284 284 284 284 284 284 284 283 283 283 282 282 282 281 281 281 281 280 280 280 280 280 280 280
284 284 284 284 285 285 285 285 285 285 285 285 285 285 285 285 285 284 284 284 284 284 284 283 283 284 284 285 285 283 282 282 281 281 281 281 280 279 279 279 279 279
284 283 283 283 284 284 284 285 285 285 285 285 285 285 285 285 284 284 284 284 284 284 283 283 283 284 286 287 287 286 283 282 281 281 281 280 280 280 279 279 279 279
283 282 282 282 283 283 283 284 284 284 284 284 284 284 284 284 284 283 284 284 284 284 284 283 283 285 286 287 287 287 285 282 282 281 280 280 280 280 279 279 278 278
282 281 281 281 282 282 282 282 282 282 283 283 283 284 284 283 283 283 283 283 283 283 283 283 283 286 287 287 287 287 287 284 281 281 280 280 280 279 279 279 278 277
282 281 281 281 281 281 281 281 281 281 282 282 283 283 283 283 283 283 283 283 283 283 283 283 283 285 287 287 287 287 288 286 281 281 280 280 279 279 279 278 277 277
281 280 280 280 280 281 281 280 281 281 281 282 282 282 282 282 282 282 283 283 283 283 283 283 283 286 286 287 287 288 288 287 282 281 280 280 279 279 279 278 277 277
279 278 278 279 280 280 280 280 281 281 280 281 281 281 282 282 282 282 282 282 283 282 282 282 283 286 286 287 287 288 288 286 283 281 280 279 279 279 279 278 277 277
277 276 277 279 280 280 280 280 280 280 281 281 280 280 280 281 281 281 282 282 282 282 281 282 282 284 286 286 287 288 287 285 283 281 280 279 278 278 277 277 276 276
275 275 276 279 280 279 279 279 280 280 280 280 279 279 279 280 280 280 281 281 281 281 282 281 282 283 285 286 287 287 287 285 283 281 279 278 278 277 277 276 276 278
274 274 276 279 279 279 278 278 279 279 279 279 278 278 278 279 279 279 279 280 281 281 282 281 281 282 284 285 286 287 287 285 283 281 279 278 277 275 275 275 276 278
273 273 275 277 277 277 277 277 278 278 278 279 279 278 278 278 278 278 278 279 280 280 280 281 281 281 282 284 286 287 287 285 283 280 278 277 276 274 274 274 275 276

ECMWFNIL_sfc_thetae_012.txt.gz
Theta_e
296 297 297 297 297 298 298 298 298 297 297 298 297 297 296 296 296 295 294 294 294 294 294 294 294 293 293 293 293 292 292 292 292 292 292 291 291 292 291 292 293 293
295 296 296 296 296 297 297 297 297 297 297 297 297 297 297 297 296 295 294 293 294 293 294 294 293 293 293 292 292 291 291 291 290 292 290 290 290 290 291 291 292 293
294 294 295 295 295 296 296 297 296 296 296 297 297 297 297 296 295 295 294 293 293 293 293 293 293 293 292 292 291 290 290 290 290 290 290 290 290 289 290 291 291 292
292 292 292 293 294 294 295 296 296 295 295 295 295 296 295 296 295 294 294 292 293 292 292 292 292 292 292 291 291 290 290 290 290 290 289 289 290 290 290 290 290 291
291 291 292 292 292 293 294 294 294 294 294 294 295 295 294 294 294 293 293 292 292 292 292 291 291 291 291 290 290 289 289 289 289 290 289 288 289 289 289 289 288 289
291 291 291 291 291 291 291 292 293 293 293 293 294 294 294 294 293 292 292 291 291 291 291 291 290 290 290 290 289 289 289 288 288 289 288 287 288 289 288 288 288 287
290 290 290 290 290 290 290 291 291 292 292 293 293 292 293 292 292 292 292 291 291 291 290 290 290 289 289 289 289 288 288 288 288 287 287 287 288 287 287 287 287 287
290 290 290 290 289 290 290 290 290 291 292 292 291 292 292 292 292 292 291 291 290 290 290 290 290 290 289 289 288 288 287 288 287 287 286 286 287 286 286 286 286 286
289 289 289 288 288 289 289 290 290 290 291 291 290 291 291 291 291 291 291 290 290 289 290 289 289 289 289 288 288 287 287 287 287 287 286 285 285 286 286 285 284 285
288 288 288 287 287 287 288 289 289 290 290 290 290 290 290 290 290 291 291 290 289 289 289 289 288 288 288 287 287 287 287 286 286 286 286 285 285 285 285 284 284 284
287 287 286 286 286 287 286 287 288 288 289 289 289 289 289 289 289 290 289 289 288 288 288 288 288 288 287 287 287 287 286 286 286 285 285 285 285 285 285 284 284 284
286 286 286 286 286 286 286 287 287 288 288 289 289 289 289 289 289 289 288 288 288 288 288 287 287 287 287 286 286 286 286 286 286 286 285 285 285 285 285 284 284 284
286 286 286 285 285 285 286 286 287 287 288 288 289 288 288 288 289 288 288 287 288 288 288 288 287 287 286 285 285 285 285 284 285 285 284 284 284 284 284 284 284 284
286 287 286 286 286 285 286 286 286 286 287 287 288 288 288 288 288 288 288 288 287 287 288 288 288 288 288 287 286 285 285 284 284 284 284 284 283 284 284 284 284 284
286 287 287 286 285 285 285 285 286 286 286 286 287 287 288 288 288 287 287 287 287 287 286 287 287 287 287 287 286 285 284 284 284 284 283 283 283 283 283 283 284 284
286 286 286 285 284 284 284 285 285 286 286 286 286 287 287 287 287 287 287 287 286 286 286 286 286 287 287 287 287 285 284 284 284 284 284 283 283 283 283 283 284 284
285 285 285 284 284 283 283 284 284 284 285 285 285 286 286 286 287 286 286 286 286 286 286 286 286 287 287 289 289 289 287 285 285 284 284 284 283 283 283 283 283 283
284 284 283 282 282 282 282 283 284 284 284 284 284 284 285 285 285 286 286 286 286 286 286 286 286 287 288 289 289 289 288 286 285 284 284 284 283 283 283 283 283 282
283 282 281 280 280 280 280 281 283 283 283 284 283 284 284 284 284 285 285 286 286 286 286 286 286 287 289 289 289 289 289 288 285 285 284 284 284 283 283 283 283 282
281 280 279 279 279 278 279 279 282 282 283 283 283 284 284 284 284 284 285 285 285 285 286 286 286 287 288 289 289 289 289 289 286 285 284 284 284 283 283 283 283 282
279 279 278 278 277 277 277 278 280 282 282 282 282 282 282 282 283 283 283 284 285 285 285 285 286 287 288 288 289 289 289 289 287 286 285 284 284 284 283 283 283 283
278 277 277 276 276 275 275 276 278 281 281 281 281 282 282 283 283 283 283 283 284 284 284 284 286 287 287 288 288 289 289 287 286 286 285 285 284 284 283 283 283 283
277 276 275 275 274 274 274 275 276 278 279 280 279 280 280 281 281 281 282 283 283 283 283 284 285 286 286 287 287 288 288 287 286 286 286 285 284 285 283 282 282 282
276 275 274 274 273 273 273 273 274 276 277 278 278 278 278 279 280 281 281 282 282 282 283 283 284 285 286 286 286 287 287 286 286 286 285 285 285 285 284 282 282 282
275 274 273 272 272 272 272 272 272 274 276 277 277 277 277 279 279 280 280 281 282 282 282 282 283 284 285 285 286 286 286 286 286 285 285 285 285 284 284 283 281 282
274 273 272 272 271 271 271 271 272 273 274 275 274 275 275 276 277 278 279 279 280 281 281 282 282 283 284 285 285 286 286 285 285 284 284 284 284 284 282 282 281 281

ECMWFNIL_sfc_thetae_015.txt.gz
Theta_e
294 294 294 295 296 296 296 296 297 297 297 298 297 298 298 299 300 299 298 298 298 297 297 297 297 297 297 296 296 295 294 294 293 294 293 292 292 292 292 294 294 294
293 294 293 294 294 295 295 296 296 296 296 297 297 297 298 299 300 299 298 297 297 296 296 296 296 296 295 295 295 294 293 293 293 294 292 292 292 292 292 292 293 294
292 292 292 292 292 293 294 294 295 295 295 296 296 296 297 298 298 298 298 296 296 295 295 295 295 295 294 294 294 294 293 292 292 292 292 292 292 291 291 292 292 292
292 292 291 292 292 292 293 293 293 293 294 294 294 296 296 297 297 296 296 295 295 295 295 295 294 294 294 294 293 293 293 292 292 292 291 291 291 291 290 291 291 291
290 290 290 291 291 292 292 292 292 292 292 293 293 294 294 295 295 295 295 295 294 294 294 294 294 294 293 293 293 292 292 291 292 292 291 290 290 290 290 290 289 289
290 290 290 289 289 290 290 290 291 291 291 291 292 292 293 293 293 293 293 293 293 293 293 293 293 293 293 292 292 292 291 291 291 291 290 289 290 290 290 289 289 288
288 289 288 289 288 289 288 289 290 290 291 291 291 291 292 291 292 292 292 293 293 292 292 292 292 292 292 292 291 291 291 290 290 290 289 289 289 289 289 289 288 288
287 288 288 287 287 287 286 288 288 289 289 290 290 290 291 291 291 291 291 292 292 292 292 291 291 291 291 291 290 290 289 290 290 289 288 288 288 288 288 289 288 287
286 286 286 285 285 286 285 286 287 288 289 288 289 289 290 290 290 290 290 290 290 291 291 291 291 291 291 290 290 289 289 289 289 289 288 288 287 288 288 288 287 287
285 286 285 285 284 285 285 286 286 286 287 288 288 288 288 289 289 289 289 289 289 289 290 290 290 290 290 290 289 289 289 288 288 288 288 288 287 287 288 287 287 286
286 286 285 285 285 285 285 285 285 286 286 286 286 286 287 287 287 288 288 288 288 288 288 289 289 289 289 289 289 289 288 288 288 288 288 288 288 288 288 287 287 286
285 286 286 286 285 285 285 285 285 285 286 286 286 286 287 287 287 287 287 287 287 287 287 288 288 289 289 289 289 289 288 288 288 287 287 287 287 287 288 288 287 287
284 285 286 286 286 285 285 285 285 285 285 286 286 285 285 286 286 286 287 286 286 287 287 287 287 288 288 288 288 288 288 287 287 287 287 287 287 287 287 287 287 287
284 285 286 286 286 286 285 284 284 284 285 286 286 286 286 285 285 285 286 287 287 286 287 287 287 287 287 288 288 287 287 287 287 286 286 286 286 286 286 286 286 286
284 284 286 286 285 285 284 284 283 283 284 285 285 285 286 286 286 286 285 285 286 286 287 287 287 287 287 287 287 287 287 286 286 286 286 286 285 285 285 286 286 286
283 283 284 284 284 283 283 282 282 282 283 283 284 285 285 285 285 285 285 285 285 285 286 287 287 287 287 288 289 287 286 286 286 286 285 285 285 285 285 285 285 286
282 282 283 283 283 282 281 281 280 280 280 282 283 284 284 285 284 284 284 285 285 285 285 286 286 287 288 290 290 290 288 287 286 286 285 285 285 284 284 284 284 285
281 281 281 282 282 281 280 280 279 279 279 280 282 283 284 284 283 284 284 284 284 284 284 285 286 287 289 289 290 290 290 287 286 286 286 286 285 285 285 285 284 284
281 280 280 280 281 280 280 279 278 278 278 278 279 281 283 283 283 283 283 284 284 284 284 284 285 287 288 289 289 290 290 289 287 286 286 285 285 285 285 285 285 284
280 280 279 280 280 279 279 278 277 277 277 277 278 279 281 282 282 282 282 282 283 283 283 283 284 286 288 288 288 289 289 289 287 286 286 286 285 285 285 285 285 284
279 279 279 279 279 278 278 277 276 276 276 276 276 277 278 279 280 280 281 281 281 282 282 282 283 286 287 287 287 288 289 289 287 287 286 286 286 286 285 285 285 285
279 278 278 278 278 277 276 275 275 275 274 275 275 276 276 278 278 279 279 280 280 280 280 280 282 284 285 287 287 287 288 287 286 286 286 286 286 286 286 286 285 285
278 277 277 277 277 276 275 274 274 273 274 274 273 273 274 275 276 277 278 278 278 279 279 280 281 283 285 286 286 287 287 285 285 285 285 285 285 286 286 286 286 286
277 276 275 275 275 274 273 273 273 273 273 273 272 272 272 273 275 276 277 277 277 278 279 278 279 281 283 284 285 286 286 284 284 284 284 284 285 286 286 286 286 285
275 275 274 273 273 273 272 272 271 271 272 272 272 272 272 273 274 275 275 275 275 275 277 277 277 279 282 283 284 284 284 283 284 283 283 283 284 284 286 286 286 286
273 272 272 272 271 271 271 271 271 271 271 271 271 271 271 271 272 272 272 272 273 273 273 274 274 275 278 281 283 283 284 283 283 283 282 282 283 284 284 285 286 286